AFR617 KMIA-TFFR

Flight info

Callsign AFR617
Flight time 2h 42m
Altitude 35000
Route KLADA2 BITAC Y290 HAGIT/N0447F370 Y421 MEEGL DCT MODUX/N0383F230 R888 GORET GORET2A
Aircraft A320/M-SDE3FGHIRWY/LB1

Departure

Time 2026-05-04 04:42
Airport Miami International Airport (KMIA)

Arrival

Time 2026-05-04 07:24
Airport Maryse Condé International Airport (TFFR)
Time Latitude Longitude Altitude Speed Heading
2026-05-04 04:19 25.79242 -80.27312 17 ft 0 kts 279°
2026-05-04 04:28 25.79242 -80.27311 17 ft 1 kts 279°
2026-05-04 04:28 25.79239 -80.27293 16 ft 3 kts 279°
2026-05-04 04:28 25.79236 -80.27272 16 ft 2 kts 279°
2026-05-04 04:28 25.79235 -80.27254 16 ft 3 kts 256°
2026-05-04 04:29 25.79243 -80.27237 16 ft 3 kts 206°
2026-05-04 04:29 25.79261 -80.27231 16 ft 2 kts 181°
2026-05-04 04:29 25.79271 -80.27231 16 ft 1 kts 178°
2026-05-04 04:29 25.79272 -80.27231 16 ft 0 kts 178°
2026-05-04 04:32 25.79246 -80.27230 17 ft 10 kts 178°
2026-05-04 04:32 25.79180 -80.27227 17 ft 9 kts 178°
2026-05-04 04:32 25.79125 -80.27225 17 ft 7 kts 178°
2026-05-04 04:32 25.79078 -80.27221 16 ft 7 kts 174°
2026-05-04 04:33 25.79030 -80.27218 16 ft 10 kts 178°
2026-05-04 04:33 25.78939 -80.27239 14 ft 14 kts 229°
2026-05-04 04:33 25.78925 -80.27341 15 ft 18 kts 266°
2026-05-04 04:33 25.78902 -80.27534 19 ft 28 kts 258°
2026-05-04 04:34 25.78876 -80.27749 18 ft 29 kts 268°
2026-05-04 04:34 25.78876 -80.27960 22 ft 23 kts 292°
2026-05-04 04:34 25.78956 -80.28113 21 ft 24 kts 303°
2026-05-04 04:34 25.79044 -80.28277 21 ft 25 kts 301°
2026-05-04 04:35 25.79137 -80.28451 17 ft 27 kts 307°
2026-05-04 04:35 25.79242 -80.28631 16 ft 28 kts 299°
2026-05-04 04:35 25.79340 -80.28827 14 ft 29 kts 299°
2026-05-04 04:35 25.79437 -80.29021 16 ft 29 kts 300°
2026-05-04 04:36 25.79538 -80.29211 19 ft 28 kts 298°
2026-05-04 04:36 25.79634 -80.29403 17 ft 29 kts 300°
2026-05-04 04:36 25.79734 -80.29601 16 ft 29 kts 298°
2026-05-04 04:36 25.79815 -80.29760 12 ft 23 kts 300°
2026-05-04 04:37 25.79947 -80.30017 13 ft 10 kts 300°
2026-05-04 04:37 25.79978 -80.30079 14 ft 8 kts 299°
2026-05-04 04:38 25.79989 -80.30100 16 ft 0 kts 300°
2026-05-04 04:40 25.79990 -80.30102 16 ft 3 kts 300°
2026-05-04 04:41 25.80040 -80.30118 16 ft 11 kts 20°
2026-05-04 04:41 25.80075 -80.30041 14 ft 15 kts 88°
2026-05-04 04:41 25.80090 -80.29715 15 ft 77 kts 87°
2026-05-04 04:41 25.80126 -80.28891 22 ft 135 kts 86°
2026-05-04 04:42 25.80178 -80.27676 89 ft 173 kts 85°
2026-05-04 04:42 25.80241 -80.26356 706 ft 173 kts 92°
2026-05-04 04:42 25.79957 -80.25081 1274 ft 175 kts 115°
2026-05-04 04:42 25.79593 -80.24224 1458 ft 190 kts 115°
2026-05-04 04:43 25.78986 -80.22843 1758 ft 208 kts 117°
2026-05-04 04:43 25.78313 -80.21353 2104 ft 225 kts 117°
2026-05-04 04:43 25.77305 -80.19156 2544 ft 256 kts 118°
2026-05-04 04:43 25.76743 -80.17937 2860 ft 268 kts 117°
2026-05-04 04:44 25.75578 -80.15494 3933 ft 272 kts 120°
2026-05-04 04:44 25.74957 -80.14249 4491 ft 274 kts 120°
2026-05-04 04:44 25.74021 -80.12394 5283 ft 278 kts 121°
2026-05-04 04:44 25.73155 -80.10474 5968 ft 286 kts 112°
2026-05-04 04:45 25.72455 -80.08385 6701 ft 291 kts 112°
2026-05-04 04:45 25.71755 -80.06260 7414 ft 296 kts 112°
2026-05-04 04:45 25.71045 -80.04098 8139 ft 300 kts 112°
2026-05-04 04:47 25.66337 -79.89885 11141 ft 367 kts 112°
2026-05-04 04:47 25.65446 -79.87209 11755 ft 372 kts 112°
2026-05-04 04:47 25.64546 -79.84502 12386 ft 376 kts 112°
2026-05-04 04:47 25.63640 -79.81762 13002 ft 381 kts 112°
2026-05-04 04:48 25.62722 -79.78988 13608 ft 385 kts 112°
2026-05-04 04:49 25.58916 -79.67645 15744 ft 400 kts 114°
2026-05-04 04:49 25.57886 -79.64769 16265 ft 403 kts 115°
2026-05-04 04:49 25.56821 -79.61883 16776 ft 406 kts 116°
2026-05-04 04:49 25.55750 -79.59022 17282 ft 410 kts 116°
2026-05-04 04:50 25.54777 -79.56424 17726 ft 413 kts 116°
2026-05-04 04:50 25.53679 -79.53467 18236 ft 417 kts 116°
2026-05-04 04:50 25.52575 -79.50479 18679 ft 421 kts 116°
2026-05-04 04:50 25.51470 -79.47465 19110 ft 424 kts 115°
2026-05-04 04:51 25.50362 -79.44426 19545 ft 428 kts 115°
2026-05-04 04:51 25.49245 -79.41361 19982 ft 431 kts 115°
2026-05-04 04:51 25.48117 -79.38273 20416 ft 434 kts 116°
2026-05-04 04:51 25.46960 -79.35122 20848 ft 438 kts 116°
2026-05-04 04:52 25.45822 -79.32031 21277 ft 441 kts 116°
2026-05-04 04:52 25.44657 -79.28869 21691 ft 445 kts 116°
2026-05-04 04:52 25.43486 -79.25692 22106 ft 448 kts 116°
2026-05-04 04:52 25.42302 -79.22482 22522 ft 452 kts 116°
2026-05-04 04:53 25.41111 -79.19256 22927 ft 455 kts 116°
2026-05-04 04:53 25.39894 -79.15965 23324 ft 458 kts 116°
2026-05-04 04:53 25.38685 -79.12688 23688 ft 461 kts 116°
2026-05-04 04:53 25.37472 -79.09395 24024 ft 464 kts 116°
2026-05-04 04:54 25.36265 -79.06130 24343 ft 466 kts 116°
2026-05-04 04:54 25.35032 -79.02805 24674 ft 468 kts 116°
2026-05-04 04:54 25.33793 -78.99468 24996 ft 470 kts 116°
2026-05-04 04:54 25.32548 -78.96112 25315 ft 472 kts 116°
2026-05-04 04:55 25.31301 -78.92752 25628 ft 474 kts 116°
2026-05-04 04:55 25.30047 -78.89373 25945 ft 476 kts 116°
2026-05-04 04:55 25.28787 -78.85982 26243 ft 478 kts 116°
2026-05-04 04:55 25.27520 -78.82579 26546 ft 480 kts 116°
2026-05-04 04:56 25.26247 -78.79155 26843 ft 482 kts 116°
2026-05-04 04:56 25.24971 -78.75730 27132 ft 484 kts 116°
2026-05-04 04:56 25.23683 -78.72284 27432 ft 485 kts 116°
2026-05-04 04:56 25.22390 -78.68836 27715 ft 487 kts 116°
2026-05-04 04:57 25.21090 -78.65368 27994 ft 489 kts 116°
2026-05-04 04:57 25.19785 -78.61880 28269 ft 491 kts 116°
2026-05-04 04:57 25.18480 -78.58392 28533 ft 493 kts 116°
2026-05-04 04:57 25.17147 -78.54894 28799 ft 494 kts 117°
2026-05-04 04:58 25.15759 -78.51419 29055 ft 495 kts 118°
2026-05-04 04:58 25.14331 -78.47958 29297 ft 497 kts 119°
2026-05-04 04:58 25.12874 -78.44488 29548 ft 498 kts 119°
2026-05-04 04:58 25.11414 -78.41015 29789 ft 500 kts 119°
2026-05-04 04:59 25.09952 -78.37523 30016 ft 502 kts 118°
2026-05-04 04:59 25.08500 -78.34019 30212 ft 503 kts 118°
2026-05-04 04:59 25.07052 -78.30494 30399 ft 505 kts 118°
2026-05-04 04:59 25.05607 -78.26960 30581 ft 506 kts 118°
2026-05-04 05:00 25.04155 -78.23411 30757 ft 507 kts 118°
2026-05-04 05:00 25.02700 -78.19870 30991 ft 507 kts 118°
2026-05-04 05:00 24.99790 -78.12800 31488 ft 506 kts 118°
2026-05-04 05:01 24.98332 -78.09270 31729 ft 506 kts 119°
2026-05-04 05:01 24.96872 -78.05745 31974 ft 506 kts 119°
2026-05-04 05:01 24.95409 -78.02220 32225 ft 505 kts 119°
2026-05-04 05:01 24.93944 -77.98692 32480 ft 505 kts 119°
2026-05-04 05:02 24.92485 -77.95175 32722 ft 505 kts 119°
2026-05-04 05:02 24.91024 -77.91657 32963 ft 504 kts 119°
2026-05-04 05:02 24.89562 -77.88148 33222 ft 504 kts 119°
2026-05-04 05:02 24.88102 -77.84639 33473 ft 504 kts 119°
2026-05-04 05:03 24.86667 -77.81183 33723 ft 503 kts 119°
2026-05-04 05:03 24.85212 -77.77677 33978 ft 503 kts 119°
2026-05-04 05:04 24.80835 -77.67181 34592 ft 503 kts 120°
2026-05-04 05:04 24.79373 -77.63687 34770 ft 503 kts 120°
2026-05-04 05:04 24.77911 -77.60188 34958 ft 503 kts 120°
2026-05-04 05:06 24.65649 -77.32844 35028 ft 496 kts 122°
2026-05-04 05:07 24.62551 -77.26076 35032 ft 496 kts 122°
2026-05-04 05:07 24.59463 -77.19304 35037 ft 495 kts 122°
2026-05-04 05:09 24.45484 -76.88964 35036 ft 495 kts 122°
2026-05-04 05:10 24.42373 -76.82227 35030 ft 495 kts 122°
2026-05-04 05:10 24.39278 -76.75531 35029 ft 495 kts 122°
2026-05-04 05:11 24.36153 -76.68795 35027 ft 495 kts 122°
2026-05-04 05:11 24.33022 -76.62059 35029 ft 495 kts 122°
2026-05-04 05:12 24.29884 -76.55324 35032 ft 495 kts 122°
2026-05-04 05:12 24.26755 -76.48607 35038 ft 495 kts 122°
2026-05-04 05:13 24.23623 -76.41883 35039 ft 495 kts 122°
2026-05-04 05:13 24.20488 -76.35173 35042 ft 495 kts 122°
2026-05-04 05:14 24.17346 -76.28464 35043 ft 495 kts 122°
2026-05-04 05:14 24.14210 -76.21769 35047 ft 494 kts 122°
2026-05-04 05:15 24.11071 -76.15071 35049 ft 494 kts 122°
2026-05-04 05:15 24.07926 -76.08373 35049 ft 494 kts 122°
2026-05-04 05:16 24.04787 -76.01696 35047 ft 494 kts 122°
2026-05-04 05:16 24.01664 -75.95067 35051 ft 493 kts 122°
2026-05-04 05:17 23.98522 -75.88396 35049 ft 493 kts 122°
2026-05-04 05:17 23.95372 -75.81742 35050 ft 493 kts 122°
2026-05-04 05:18 23.92222 -75.75084 35045 ft 493 kts 122°
2026-05-04 05:18 23.89067 -75.68428 35047 ft 493 kts 122°
2026-05-04 05:19 23.85896 -75.61733 35046 ft 493 kts 122°
2026-05-04 05:19 23.82729 -75.55081 35043 ft 493 kts 122°
2026-05-04 05:20 23.79572 -75.48442 35044 ft 493 kts 122°
2026-05-04 05:20 23.76433 -75.41839 35046 ft 493 kts 122°
2026-05-04 05:21 23.73268 -75.35209 35043 ft 493 kts 122°
2026-05-04 05:21 23.70096 -75.28568 35043 ft 493 kts 122°
2026-05-04 05:22 23.66927 -75.21942 35042 ft 493 kts 122°
2026-05-04 05:22 23.63750 -75.15308 35041 ft 493 kts 122°
2026-05-04 05:23 23.60568 -75.08690 35040 ft 493 kts 122°
2026-05-04 05:23 23.57389 -75.02070 35037 ft 493 kts 122°
2026-05-04 05:24 23.54205 -74.95445 35038 ft 493 kts 122°
2026-05-04 05:24 23.51019 -74.88838 35040 ft 493 kts 122°
2026-05-04 05:25 23.47830 -74.82224 35043 ft 493 kts 122°
2026-05-04 05:25 23.45183 -74.76736 35045 ft 492 kts 122°
2026-05-04 05:26 23.41995 -74.70143 35044 ft 492 kts 122°
2026-05-04 05:26 23.38803 -74.63560 35046 ft 492 kts 122°
2026-05-04 05:28 23.26039 -74.37274 35044 ft 490 kts 122°
2026-05-04 05:29 23.22847 -74.30726 35041 ft 490 kts 122°
2026-05-04 05:29 23.19649 -74.24179 35042 ft 490 kts 122°
2026-05-04 05:31 23.06877 -73.98094 35048 ft 488 kts 122°
2026-05-04 05:32 23.03683 -73.91594 35033 ft 488 kts 122°
2026-05-04 05:33 22.98874 -73.81857 35036 ft 487 kts 122°
2026-05-04 05:33 22.95677 -73.75369 35035 ft 487 kts 122°
2026-05-04 05:34 22.92489 -73.68887 35038 ft 487 kts 122°
2026-05-04 05:34 22.89299 -73.62413 35038 ft 487 kts 122°
2026-05-04 05:35 22.86097 -73.55942 35036 ft 486 kts 122°
2026-05-04 05:35 22.82891 -73.49482 35041 ft 486 kts 122°
2026-05-04 05:36 22.79685 -73.43030 35041 ft 486 kts 122°
2026-05-04 05:36 22.76485 -73.36588 35030 ft 485 kts 122°
2026-05-04 05:37 22.73283 -73.30148 35034 ft 485 kts 122°
2026-05-04 05:37 22.70090 -73.23713 35037 ft 485 kts 122°
2026-05-04 05:38 22.65273 -73.14067 35033 ft 485 kts 122°
2026-05-04 05:38 22.62055 -73.07644 35032 ft 485 kts 122°
2026-05-04 05:39 22.57237 -72.98005 35032 ft 485 kts 122°
2026-05-04 05:40 22.52413 -72.88376 35042 ft 485 kts 122°
2026-05-04 05:40 22.49197 -72.81959 35041 ft 485 kts 122°
2026-05-04 05:41 22.45998 -72.75592 35041 ft 484 kts 122°
2026-05-04 05:41 22.42771 -72.69201 35044 ft 484 kts 122°
2026-05-04 05:42 22.39545 -72.62806 35045 ft 484 kts 122°
2026-05-04 05:42 22.36322 -72.56418 35048 ft 484 kts 122°
2026-05-04 05:43 22.33100 -72.50035 35046 ft 484 kts 122°
2026-05-04 05:45 22.20198 -72.24582 35047 ft 483 kts 122°
2026-05-04 05:47 22.07262 -71.99171 35048 ft 482 kts 122°
2026-05-04 05:47 22.04022 -71.92837 35048 ft 482 kts 122°
2026-05-04 05:48 22.00783 -71.86514 35052 ft 482 kts 122°
2026-05-04 05:48 21.97548 -71.80187 35051 ft 482 kts 122°
2026-05-04 05:49 21.94309 -71.73866 35051 ft 482 kts 122°
2026-05-04 05:49 21.91071 -71.67558 35051 ft 481 kts 122°
2026-05-04 05:51 21.78123 -71.42400 35049 ft 481 kts 121°
2026-05-04 05:52 21.74872 -71.36114 35051 ft 481 kts 121°
2026-05-04 05:52 21.71620 -71.29830 35052 ft 481 kts 121°
2026-05-04 05:54 21.58599 -71.04738 35050 ft 480 kts 123°
2026-05-04 05:55 21.54545 -70.99122 35047 ft 475 kts 134°
2026-05-04 05:55 21.50211 -70.93763 35051 ft 475 kts 134°
2026-05-04 05:56 21.45886 -70.88396 35048 ft 475 kts 133°
2026-05-04 05:56 21.41559 -70.83036 35048 ft 475 kts 134°
2026-05-04 05:57 21.37227 -70.77684 35045 ft 475 kts 134°
2026-05-04 05:57 21.32895 -70.72340 35044 ft 475 kts 133°
2026-05-04 05:58 21.28590 -70.67032 35043 ft 474 kts 133°
2026-05-04 05:58 21.24263 -70.61691 35045 ft 474 kts 133°
2026-05-04 05:59 21.19944 -70.56360 35045 ft 474 kts 133°
2026-05-04 05:59 21.15612 -70.51040 35046 ft 473 kts 133°
2026-05-04 06:00 21.11282 -70.45722 35043 ft 473 kts 133°
2026-05-04 06:00 21.06966 -70.40410 35044 ft 473 kts 133°
2026-05-04 06:01 21.02646 -70.35109 35043 ft 472 kts 133°
2026-05-04 06:03 20.85352 -70.13957 35036 ft 472 kts 133°
2026-05-04 06:05 20.65907 -69.90242 35038 ft 471 kts 133°
2026-05-04 06:06 20.61585 -69.84988 35041 ft 471 kts 133°
2026-05-04 06:06 20.57256 -69.79743 35035 ft 471 kts 133°
2026-05-04 06:07 20.52932 -69.74500 35037 ft 470 kts 133°
2026-05-04 06:07 20.48616 -69.69259 35035 ft 470 kts 133°
2026-05-04 06:08 20.44298 -69.64033 35034 ft 469 kts 133°
2026-05-04 06:08 20.39979 -69.58806 35032 ft 469 kts 133°
2026-05-04 06:09 20.35665 -69.53586 35034 ft 469 kts 133°
2026-05-04 06:11 20.18402 -69.32779 35049 ft 469 kts 133°
2026-05-04 06:13 20.01848 -69.12879 35053 ft 468 kts 133°
2026-05-04 06:14 19.86725 -68.94766 35056 ft 468 kts 132°
2026-05-04 06:15 19.82526 -68.89486 35058 ft 468 kts 130°
2026-05-04 06:15 19.78476 -68.84072 35060 ft 468 kts 129°
2026-05-04 06:16 19.74428 -68.78673 35061 ft 467 kts 129°
2026-05-04 06:16 19.70335 -68.73319 35064 ft 467 kts 130°
2026-05-04 06:17 19.66219 -68.67989 35063 ft 467 kts 130°
2026-05-04 06:17 19.62137 -68.62694 35061 ft 467 kts 130°
2026-05-04 06:18 19.58036 -68.57349 35059 ft 467 kts 129°
2026-05-04 06:20 19.41593 -68.36018 35052 ft 466 kts 130°
2026-05-04 06:21 19.31319 -68.22715 35038 ft 467 kts 129°
2026-05-04 06:22 19.27203 -68.17388 35040 ft 468 kts 129°
2026-05-04 06:25 18.98298 -67.80192 35037 ft 468 kts 129°
2026-05-04 06:26 18.94155 -67.74881 35044 ft 468 kts 129°
2026-05-04 06:26 18.90010 -67.69571 35041 ft 469 kts 129°
2026-05-04 06:27 18.79632 -67.56308 35050 ft 468 kts 129°
2026-05-04 06:28 18.75484 -67.51010 35054 ft 468 kts 129°
2026-05-04 06:28 18.71354 -67.45735 35054 ft 468 kts 129°
2026-05-04 06:29 18.67204 -67.40437 35056 ft 468 kts 129°
2026-05-04 06:29 18.63056 -67.35155 35057 ft 467 kts 129°
2026-05-04 06:30 18.58909 -67.29866 35053 ft 467 kts 129°
2026-05-04 06:30 18.54761 -67.24591 35058 ft 467 kts 129°
2026-05-04 06:31 18.50630 -67.19305 35052 ft 467 kts 127°
2026-05-04 06:31 18.47533 -67.13319 35049 ft 466 kts 109°
2026-05-04 06:33 18.38465 -66.87702 35060 ft 468 kts 110°
2026-05-04 06:34 18.36185 -66.81284 35065 ft 468 kts 110°
2026-05-04 06:34 18.33902 -66.74853 35063 ft 468 kts 110°
2026-05-04 06:36 18.24754 -66.49203 35053 ft 468 kts 110°
2026-05-04 06:37 18.22455 -66.42794 35053 ft 468 kts 110°
2026-05-04 06:37 18.20161 -66.36386 35052 ft 468 kts 110°
2026-05-04 06:38 18.17863 -66.29972 35062 ft 469 kts 110°
2026-05-04 06:40 18.08640 -66.04320 35067 ft 470 kts 110°
2026-05-04 06:40 18.06319 -65.97895 35063 ft 470 kts 110°
2026-05-04 06:41 18.03996 -65.91480 35064 ft 470 kts 110°
2026-05-04 06:41 18.01675 -65.85057 35059 ft 470 kts 110°
2026-05-04 06:42 17.99357 -65.78640 35055 ft 469 kts 110°
2026-05-04 06:44 17.90059 -65.53038 35044 ft 469 kts 110°
2026-05-04 06:44 17.87731 -65.46638 35045 ft 469 kts 110°
2026-05-04 06:45 17.85390 -65.40236 35048 ft 469 kts 110°
2026-05-04 06:45 17.83054 -65.33838 35051 ft 469 kts 110°
2026-05-04 06:46 17.80726 -65.27451 35048 ft 469 kts 110°
2026-05-04 06:46 17.78390 -65.21059 35049 ft 469 kts 110°
2026-05-04 06:48 17.69036 -64.95555 35069 ft 469 kts 110°
2026-05-04 06:50 17.59638 -64.70057 35074 ft 469 kts 110°
2026-05-04 06:51 17.57282 -64.63691 35067 ft 468 kts 110°
2026-05-04 06:51 17.54922 -64.57327 35065 ft 468 kts 110°
2026-05-04 06:52 17.52570 -64.50968 35057 ft 468 kts 110°
2026-05-04 06:52 17.50214 -64.44608 35054 ft 468 kts 111°
2026-05-04 06:53 17.47849 -64.38250 35049 ft 468 kts 111°
2026-05-04 06:53 17.45486 -64.31892 35052 ft 468 kts 111°
2026-05-04 06:54 17.43134 -64.25536 35045 ft 468 kts 110°
2026-05-04 06:54 17.41169 -64.20249 35046 ft 468 kts 111°
2026-05-04 06:55 17.38794 -64.13911 35040 ft 468 kts 111°
2026-05-04 06:55 17.36040 -64.06539 35036 ft 468 kts 111°
2026-05-04 06:57 17.26959 -63.82248 35037 ft 467 kts 111°
2026-05-04 06:58 17.24581 -63.75921 35038 ft 467 kts 111°
2026-05-04 06:58 17.22208 -63.69598 35036 ft 467 kts 111°
2026-05-04 06:59 17.19835 -63.63277 35032 ft 467 kts 111°
2026-05-04 06:59 17.17457 -63.56956 35035 ft 467 kts 111°
2026-05-04 07:01 17.09124 -63.34887 34385 ft 467 kts 111°
2026-05-04 07:01 17.07927 -63.31732 34164 ft 467 kts 111°
2026-05-04 07:02 17.06720 -63.28541 33686 ft 464 kts 111°
2026-05-04 07:02 17.05539 -63.25411 33095 ft 461 kts 111°
2026-05-04 07:02 17.04368 -63.22310 32519 ft 458 kts 111°
2026-05-04 07:02 17.03213 -63.19261 31952 ft 455 kts 111°
2026-05-04 07:03 17.02048 -63.16194 31381 ft 453 kts 111°
2026-05-04 07:03 17.00889 -63.13140 30820 ft 450 kts 111°
2026-05-04 07:03 16.99738 -63.10109 30266 ft 448 kts 111°
2026-05-04 07:03 16.98592 -63.07094 29665 ft 445 kts 111°
2026-05-04 07:04 16.97453 -63.04104 29125 ft 440 kts 111°
2026-05-04 07:04 16.96329 -63.01147 28617 ft 435 kts 111°
2026-05-04 07:04 16.95168 -62.98245 28125 ft 431 kts 113°
2026-05-04 07:04 16.93907 -62.95426 27629 ft 426 kts 115°
2026-05-04 07:05 16.92583 -62.92675 27162 ft 422 kts 116°
2026-05-04 07:05 16.91240 -62.89972 26704 ft 417 kts 117°
2026-05-04 07:05 16.89906 -62.87295 26246 ft 414 kts 117°
2026-05-04 07:05 16.88600 -62.84635 25796 ft 410 kts 116°
2026-05-04 07:06 16.86075 -62.79357 25071 ft 399 kts 116°
2026-05-04 07:06 16.84855 -62.76772 25014 ft 395 kts 115°
2026-05-04 07:06 16.83641 -62.74200 25035 ft 395 kts 116°
2026-05-04 07:07 16.82427 -62.71631 24787 ft 395 kts 116°
2026-05-04 07:08 16.73998 -62.53894 20191 ft 374 kts 116°
2026-05-04 07:09 16.72838 -62.51465 19568 ft 379 kts 116°
2026-05-04 07:09 16.71668 -62.49011 19125 ft 377 kts 116°
2026-05-04 07:09 16.70501 -62.46565 18670 ft 376 kts 117°
2026-05-04 07:09 16.69339 -62.44130 18199 ft 375 kts 116°
2026-05-04 07:10 16.68179 -62.41696 17717 ft 373 kts 116°
2026-05-04 07:10 16.67028 -62.39283 17270 ft 370 kts 116°
2026-05-04 07:12 16.59203 -62.22911 14375 ft 349 kts 116°
2026-05-04 07:12 16.58125 -62.20662 14032 ft 345 kts 116°
2026-05-04 07:12 16.57050 -62.18433 13613 ft 342 kts 118°
2026-05-04 07:12 16.55709 -62.16399 13174 ft 341 kts 130°
2026-05-04 07:13 16.54072 -62.14622 12708 ft 339 kts 133°
2026-05-04 07:13 16.52430 -62.12869 12214 ft 338 kts 133°
2026-05-04 07:13 16.50797 -62.11125 11781 ft 335 kts 133°
2026-05-04 07:14 16.44396 -62.04301 10114 ft 323 kts 133°
2026-05-04 07:14 16.42854 -62.02657 9991 ft 310 kts 133°
2026-05-04 07:15 16.41377 -62.01081 9865 ft 299 kts 133°
2026-05-04 07:15 16.39936 -61.99545 9561 ft 294 kts 133°
2026-05-04 07:15 16.38512 -61.98028 9200 ft 291 kts 133°
2026-05-04 07:15 16.37103 -61.96525 8835 ft 289 kts 132°
2026-05-04 07:16 16.35702 -61.95027 8472 ft 287 kts 133°
2026-05-04 07:16 16.34424 -61.93447 8091 ft 283 kts 120°
2026-05-04 07:16 16.33623 -61.91598 7691 ft 280 kts 104°
2026-05-04 07:16 16.33239 -61.89626 7227 ft 276 kts 100°
2026-05-04 07:17 16.32888 -61.87671 6558 ft 274 kts 100°
2026-05-04 07:17 16.32533 -61.85725 5848 ft 272 kts 100°
2026-05-04 07:17 16.32177 -61.83795 5201 ft 269 kts 99°
2026-05-04 07:17 16.31836 -61.81949 4997 ft 249 kts 99°
2026-05-04 07:18 16.31524 -61.80268 4933 ft 225 kts 99°
2026-05-04 07:18 16.31235 -61.78705 4747 ft 216 kts 99°
2026-05-04 07:18 16.30958 -61.77198 4472 ft 207 kts 100°
2026-05-04 07:18 16.30694 -61.75760 4202 ft 198 kts 99°
2026-05-04 07:19 16.30440 -61.74378 3933 ft 191 kts 99°
2026-05-04 07:19 16.30192 -61.73031 3676 ft 188 kts 99°
2026-05-04 07:19 16.29950 -61.71717 3421 ft 187 kts 99°
2026-05-04 07:19 16.29706 -61.70388 3169 ft 187 kts 101°
2026-05-04 07:20 16.29462 -61.69067 2908 ft 186 kts 100°
2026-05-04 07:20 16.29222 -61.67764 2683 ft 177 kts 99°
2026-05-04 07:20 16.28998 -61.66548 2419 ft 166 kts 100°
2026-05-04 07:20 16.28785 -61.65396 2189 ft 156 kts 101°
2026-05-04 07:22 16.27477 -61.58268 789 ft 139 kts 97°
2026-05-04 07:22 16.27292 -61.57296 660 ft 138 kts 99°
2026-05-04 07:23 16.27107 -61.56315 405 ft 138 kts 100°
2026-05-04 07:23 16.26920 -61.55332 215 ft 139 kts 99°
2026-05-04 07:23 16.26747 -61.54345 50 ft 137 kts 99°
2026-05-04 07:23 16.26571 -61.53408 27 ft 118 kts 100°
2026-05-04 07:24 16.26455 -61.52788 28 ft 56 kts 100°
2026-05-04 07:24 16.26389 -61.52427 34 ft 40 kts 102°
2026-05-04 07:24 16.26382 -61.52240 35 ft 10 kts 38°
2026-05-04 07:24 16.26431 -61.52231 35 ft 7 kts 12°
2026-05-04 07:25 16.26473 -61.52222 35 ft 6 kts 12°
2026-05-04 07:26 16.26791 -61.52553 32 ft 13 kts 280°
2026-05-04 07:27 16.26807 -61.52641 31 ft 12 kts 279°
2026-05-04 07:27 16.26821 -61.52724 31 ft 11 kts 281°
2026-05-04 07:27 16.26835 -61.52801 30 ft 11 kts 280°
2026-05-04 07:27 16.26873 -61.52837 30 ft 7 kts
2026-05-04 07:28 16.26917 -61.52825 30 ft 6 kts
2026-05-04 07:28 16.26934 -61.52822 30 ft 0 kts
2026-05-04 07:28 16.26937 -61.52822 30 ft 0 kts